Muskegon, MI

2:38 AM EST on February 21, 2018 (GMT -0500)
Muskegon County

Weather History for KMKG - November, 2012

Change the Weather History Date:

Monday, November 5, 2012

  Actual Average Record
Temperature  
Mean Temperature 34 °F 44 °F  
Max Temperature 42 °F 51 °F 69 °F (2008)
Min Temperature 26 °F 37 °F 15 °F (1951)
Degree Days  
Heating Degree Days 31 21  
Month to date heating degree days 128 102  
Since 1 July heating degree days 710 725  
Cooling Degree Days 0 0  
Month to date cooling degree days 0 0  
Year to date cooling degree days 925 566  
Moisture  
Dew Point 24 °F    
Average Humidity 68    
Maximum Humidity 85    
Minimum Humidity 50    
Precipitation  
Precipitation 0.00 in 0.12 in 2.12 in (1990)
Month to date precipitation T 0.59  
Year to date precipitation 27.98 28.17  
Snow  
Snow 0.00 in 0.10 in 4.70 in (1990)
Month to date snowfall 0.0 0.3  
Since 1 July snowfall T 0.5  
Since 1 September snowfall T 0.5  
Snow Depth 0.00 in    
Sea Level Pressure  
Sea Level Pressure 30.23 in    
Wind  
Wind Speed 4 mph (ENE)    
Max Wind Speed 14 mph    
Max Gust Speed 17 mph    
Visibility 10 miles    
Events      
T = Trace of Precipitation, MM = Missing Value Source: NWS Daily Summary

Daily Weather History Graph

Daily Weather History Graph

Search for Another Location

Airport or City:

Trip Planner

Search our weather history database for the weather conditions in past years. The results will help you decide how hot, cold, wet, or windy it might be!

Date:

Astronomy

Nov. 05, 2012 Rise Set
Actual Time 7:25 AM EST 5:30 PM EST
Civil Twilight 6:55 AM EST 6:00 PM EST
Nautical Twilight 6:21 AM EST 6:34 PM EST
Astronomical Twilight 5:48 AM EST 7:07 PM EST
Moon 11:08 PM EST (11/5) 12:45 PM EST (11/5)
Length of Visible Light 11h 05m
Length of Day
10h 05m
Waning Gibbous, 63% of the Moon is Illuminated
Nov 5
Waning Gibbous
Nov 6
Last Quarter
Nov 13
New
Nov 20
First Quarter
Nov 28
Full

Hourly Weather History & Observations

Time (EST) Temp. Windchill Dew Point Humidity Pressure Visibility Wind Dir Wind Speed Gust Speed Precip Events Conditions
12:55 AM 30.9 °F 27.5 °F 26.1 °F 82% 30.22 in 10.0 mi North 3.5 mph - N/A   Clear
1:55 AM 28.0 °F - 23.0 °F 81% 30.22 in 10.0 mi Calm Calm - N/A   Clear
2:55 AM 28.0 °F - 24.1 °F 85% 30.23 in 10.0 mi Calm Calm - N/A   Clear
3:55 AM 28.0 °F 24.2 °F 24.1 °F 85% 30.23 in 10.0 mi NE 3.5 mph - N/A   Overcast
4:55 AM 30.9 °F 26.2 °F 26.1 °F 82% 30.24 in 10.0 mi ENE 4.6 mph - N/A   Overcast
5:55 AM 32.0 °F 24.2 °F 26.1 °F 79% 30.24 in 10.0 mi East 9.2 mph - N/A   Overcast
6:55 AM 32.0 °F 27.5 °F 25.0 °F 75% 30.24 in 10.0 mi East 4.6 mph - N/A   Overcast
7:55 AM 32.0 °F 24.8 °F 25.0 °F 75% 30.25 in 10.0 mi East 8.1 mph - N/A   Overcast
8:44 AM 33.8 °F 28.6 °F 24.8 °F 70% 30.24 in 10.0 mi East 5.8 mph - N/A   Overcast
8:55 AM 33.1 °F 26.9 °F 25.0 °F 72% 30.26 in 10.0 mi East 6.9 mph - N/A   Overcast
9:55 AM 35.1 °F 31.0 °F 25.0 °F 67% 30.26 in 10.0 mi ENE 4.6 mph - N/A   Overcast
10:55 AM 37.0 °F 31.0 °F 24.1 °F 59% 30.27 in 10.0 mi NE 8.1 mph - N/A   Overcast
11:55 AM 37.0 °F 32.4 °F 23.0 °F 57% 30.26 in 10.0 mi ENE 5.8 mph - N/A   Mostly Cloudy
12:55 PM 39.9 °F 33.9 °F 23.0 °F 51% 30.25 in 10.0 mi East 9.2 mph - N/A   Mostly Cloudy
1:06 PM 39.2 °F 34.2 °F 23.0 °F 52% 30.21 in 10.0 mi ENE 6.9 mph - N/A   Mostly Cloudy
1:55 PM 39.9 °F 35.1 °F 24.1 °F 53% 30.22 in 10.0 mi NNE 6.9 mph - N/A   Mostly Cloudy
2:55 PM 39.0 °F 34.0 °F 24.1 °F 55% 30.20 in 10.0 mi East 6.9 mph - N/A   Scattered Clouds
3:55 PM 39.9 °F 35.8 °F 25.0 °F 55% 30.20 in 10.0 mi ENE 5.8 mph - N/A   Scattered Clouds
4:55 PM 37.9 °F 35.5 °F 25.0 °F 60% 30.20 in 10.0 mi ESE 3.5 mph - N/A   Scattered Clouds
5:55 PM 36.0 °F 32.1 °F 24.1 °F 62% 30.20 in 10.0 mi ENE 4.6 mph - N/A   Scattered Clouds
6:55 PM 30.9 °F - 23.0 °F 72% 30.22 in 10.0 mi Calm Calm - N/A   Scattered Clouds
7:55 PM 30.9 °F - 24.1 °F 76% 30.21 in 10.0 mi Calm Calm - N/A   Partly Cloudy
8:55 PM 28.9 °F - 23.0 °F 78% 30.21 in 10.0 mi Calm Calm - N/A   Partly Cloudy
9:55 PM 32.0 °F - 25.0 °F 75% 30.20 in 10.0 mi Calm Calm - N/A   Overcast
10:55 PM 30.9 °F 25.2 °F 24.1 °F 76% 30.18 in 10.0 mi SE 5.8 mph - N/A   Mostly Cloudy
11:55 PM 30.9 °F 27.5 °F 23.0 °F 72% 30.17 in 10.0 mi East 3.5 mph - N/A   Clear